This demonstration page uses our WeatherBlox Daily Observations layout. Learn more.

Left ArrowRight Arrow

Hourly Observations for May 25, 2020

Temp ( °F °C ) Dew Point ( °F °C ) Humidity (%) Winds ( mph kmh ) Pressure ( in mb ) Visibility ( mi km ) Precip ( " mm )
12:51 am 00:51 Clear 68 20 22 -5.6 17 17 NNW 7 11 29.69 1005 10 16.0934 0 0
1:51 am 01:51 Clear 65 18.3 21 -6.1 19 19 WNW 9 15 29.69 1005 10 16.0934 0 0
2:51 am 02:51 Clear 65 18.3 22 -5.6 19 19 NW 9 15 29.7 1006 10 16.0934 0 0
3:51 am 03:51 Clear 60 15.6 20 -6.7 21 21 NE 7 11 29.72 1006 10 16.0934 0 0
4:51 am 04:51 Clear 60 15.6 20 -6.7 21 21 ENE 7 11 29.73 1007 10 16.0934 0 0
5:51 am 05:51 Sunny 58 14.4 22 -5.6 25 25 SE 5 7 29.76 1008 10 16.0934 0 0
6:51 am 06:51 Sunny 67 19.4 22 -5.6 18 18 SSW 3 6 29.77 1008 10 16.0934 0 0
7:51 am 07:51 Sunny 73 22.8 23 -5 15 15 W 7 11 29.78 1008 10 16.0934 0 0
8:51 am 08:51 Sunny 77 25 21 -6.1 12 12 W 3 6 29.77 1008 10 16.0934 0 0
9:51 am 09:51 Sunny 80 26.7 20 -6.7 10 10 VRB 3 6 29.76 1008 10 16.0934 0 0
10:51 am 10:51 Sunny 83 28.3 19 -7.2 9 9 SSW 8 13 29.74 1007 10 16.0934 0 0
11:51 am 11:51 Sunny 86 30 18 -7.8 8 8 WSW 9 15 29.72 1007 10 16.0934 0 0
12:51 pm 12:51 Sunny 87 30.6 17 -8.3 7 7 W 10 17 29.71 1006 10 16.0934 0 0
1:51 pm 13:51 Sunny 90 32.2 18 -7.8 7 7 VRB 6 9 29.69 1005 10 16.0934 0 0
2:51 pm 14:51 Sunny 90 32.2 15 -9.4 6 6 WNW 13 20 29.67 1005 10 16.0934 0 0
3:51 pm 15:51 Sunny 91 32.8 15 -9.4 6 6 WNW 10 17 29.66 1004 10 16.0934 0 0
4:51 pm 16:51 Sunny 91 32.8 15 -9.4 6 6 NW 16 26 29.66 1004 10 16.0934 0 0
5:51 pm 17:51 Sunny 89 31.7 17 -8.3 7 7 WNW 14 22 29.67 1005 10 16.0934 0 0
6:51 pm 18:51 Sunny 87 30.6 16 -8.9 7 7 WNW 13 20 29.68 1005 10 16.0934 0 0
7:51 pm 19:51 Clear 81 27.2 16 -8.9 9 9 WNW 8 13 29.7 1006 10 16.0934 0 0
8:51 pm 20:51 Clear 78 25.6 16 -8.9 9 9 NW 10 17 29.72 1006 10 16.0934 0 0
9:51 pm 21:51 Clear 76 24.4 18 -7.8 11 11 NNW 9 15 29.74 1007 10 16.0934 0 0
10:51 pm 22:51 Clear 73 22.8 18 -7.8 12 12 NW 12 19 29.75 1008 10 16.0934 0 0
11:51 pm 23:51 Clear 69 20.6 17 -8.3 14 14 NW 10 17 29.76 1008 10 16.0934 0 0

Powered by AerisWeather